Location: La Coruña
(43.3623°N, 8.4115°W)
Time: 20:21:35
(UTC+01:00)

STARLINK-1100 - Pass Details

Date: 21 January 2020
Orbit: 348 x 351 km, 53.0° (Epoch: 18 February)

Event Time Altitude Azimuth Distance (km) Brightness Sun altitude
Rises 19:38:22 0° 275° (W) 2,181 8.1 -12.4°
Reaches altitude 10° 19:40:46 10° 294° (WNW) 1,341 6.4 -12.8°
Maximum altitude 19:43:00 19° 343° (NNW) 944 4.8 -13.2°
Enters shadow 19:44:31 14° 20° (NNE) 1,145 4.9 -13.4°
